Weather History for Idaho Falls, ID

Change the Weather History Date:

Monday, June 16, 2014

  Actual Average Record
Temperature  
Mean Temperature 59 °F 61 °F  
Max Temperature 72 °F 76 °F 95 °F (1974)
Min Temperature 45 °F 46 °F 34 °F (2000)
Degree Days  
Heating Degree Days 6 5  
Month to date heating degree days 72 105  
Since 1 June heating degree days 72 105  
Since 1 July heating degree days 7282 7796  
Cooling Degree Days 0 1  
Month to date cooling degree days 1 7  
Year to date cooling degree days 2 9  
Since 1 June cooling degree days 1 7  
Growing Degree Days 8 (Base 50)    
Moisture  
Dew Point 43 °F    
Average Humidity 62    
Maximum Humidity 93    
Minimum Humidity 31    
Precipitation  
Precipitation 0.20 in 0.04 in 0.72 in (1992)
Month to date precipitation 0.22 0.76  
Year to date precipitation 3.65 5.61  
Sea Level Pressure  
Sea Level Pressure 29.72 in    
Wind  
Wind Speed 11 mph (SSW)    
Max Wind Speed 29 mph    
Max Gust Speed 36 mph    
Visibility 9 miles    
Events Rain    
T = Trace of Precipitation, MM = Missing Value Source: NWS Daily Summary

Daily Weather History Graph

Daily Weather History Graph

Search for Another Location

Airport:

Trip Planner

Search our weather history database for the weather conditions in past years. The results will help you decide how hot, cold, wet, or windy it might be!

Date:

Astronomy

Jun. 16, 2014 Rise Set
Actual Time 5:46 AM MDT 9:11 PM MDT
Civil Twilight 5:10 AM MDT 9:47 PM MDT
Nautical Twilight 4:24 AM MDT 10:34 PM MDT
Astronomical Twilight 3:25 AM MDT 11:33 PM MDT
Moon 11:57 PM MDT (6/16) 10:01 AM MDT (6/16)
Length of Visible Light 16h 36m
Length of Day
15h 24m
Waning Gibbous, 82% of the Moon is Illuminated
Jun 16
Waning Gibbous
Jun 19
Last Quarter
Jun 27
New
Jul 5
First Quarter
Jul 12
Full

Hourly Weather History & Observations

Time (MDT) Temp. Windchill Dew Point Humidity Pressure Visibility Wind Dir Wind Speed Gust Speed Precip Events Conditions
12:53 AM 46.9 °F - 41.0 °F 80% 29.68 in 10.0 mi North 5.8 mph - N/A   Clear
1:53 AM 50.0 °F - 39.0 °F 66% 29.67 in 10.0 mi SW 3.5 mph - N/A   Clear
2:53 AM 48.9 °F - 41.0 °F 74% 29.66 in 10.0 mi NE 3.5 mph - N/A   Mostly Cloudy
3:53 AM 48.0 °F - 41.0 °F 77% 29.68 in 10.0 mi NNE 3.5 mph - 0.00 in   Overcast
4:53 AM 51.1 °F - 39.9 °F 66% 29.64 in 10.0 mi East 5.8 mph - N/A   Mostly Cloudy
5:53 AM 50.0 °F - 37.9 °F 63% 29.64 in 10.0 mi East 3.5 mph - N/A   Partly Cloudy
6:53 AM 46.9 °F - 43.0 °F 86% 29.68 in 10.0 mi NNW 6.9 mph - N/A   Overcast
7:53 AM 50.0 °F - 42.1 °F 74% 29.64 in 10.0 mi North 8.1 mph - N/A   Mostly Cloudy
8:53 AM 50.0 °F - 44.1 °F 80% 29.68 in 4.0 mi NW 8.1 mph - 0.02 in Rain Rain
9:05 AM 52.0 °F - 45.0 °F 77% 29.74 in 10.0 mi ENE 4.6 mph - 0.01 in Rain Light Rain
9:53 AM 55.0 °F - 48.0 °F 77% 29.67 in 10.0 mi NE 4.6 mph - 0.01 in Rain Light Rain
10:53 AM 57.9 °F - 45.0 °F 62% 29.66 in 10.0 mi SSW 10.4 mph - 0.00 in   Mostly Cloudy
11:53 AM 63.0 °F - 43.0 °F 48% 29.67 in 10.0 mi South 15.0 mph - N/A   Mostly Cloudy
12:53 PM 66.0 °F - 39.9 °F 38% 29.65 in 10.0 mi SW 16.1 mph - N/A   Mostly Cloudy
1:53 PM 69.1 °F - 39.0 °F 33% 29.60 in 10.0 mi SW 16.1 mph 25.3 mph N/A   Mostly Cloudy
2:53 PM 71.1 °F - 41.0 °F 34% 29.60 in 10.0 mi SW 24.2 mph 32.2 mph N/A   Mostly Cloudy
3:53 PM 69.1 °F - 37.0 °F 31% 29.59 in 10.0 mi SW 15.0 mph 28.8 mph N/A   Mostly Cloudy
4:37 PM 62.1 °F - 43.0 °F 50% 29.70 in 10.0 mi West 18.4 mph 24.2 mph 0.00 in Rain Light Rain
4:53 PM 59.0 °F - 42.1 °F 53% 29.64 in 10.0 mi West 16.1 mph 23.0 mph 0.00 in   Overcast
5:53 PM 53.1 °F - 41.0 °F 64% 29.72 in 6.0 mi SW 20.7 mph 27.6 mph 0.00 in Rain Light Rain
6:53 PM 51.1 °F - 46.0 °F 83% 29.75 in 7.0 mi South 9.2 mph - 0.04 in Rain Light Rain
7:53 PM 50.0 °F - 46.9 °F 89% 29.76 in 10.0 mi South 10.4 mph - 0.00 in Rain Light Rain
8:44 PM 50.0 °F - 46.9 °F 89% 29.81 in 10.0 mi SSW 16.1 mph 23.0 mph 0.03 in Rain Light Rain
8:53 PM 50.0 °F - 48.0 °F 93% 29.76 in 10.0 mi South 13.8 mph 23.0 mph 0.03 in Rain Light Rain
9:06 PM 48.9 °F - 46.0 °F 90% 29.81 in 10.0 mi SSW 15.0 mph - 0.01 in Rain Light Rain
9:11 PM 48.9 °F - 46.0 °F 90% 29.81 in 10.0 mi SSW 13.8 mph - 0.01 in Rain Light Rain
9:20 PM 48.0 °F - 45.0 °F 89% 29.82 in 8.0 mi SW 16.1 mph - 0.02 in Rain Light Rain
9:27 PM 48.0 °F - 45.0 °F 89% 29.82 in 10.0 mi SSW 13.8 mph - 0.02 in Rain Light Rain
9:36 PM 46.9 °F - 45.0 °F 93% 29.83 in 8.0 mi SSW 19.6 mph 24.2 mph 0.04 in Rain Rain
9:53 PM 46.9 °F - 44.1 °F 90% 29.78 in 6.0 mi SSW 15.0 mph - 0.07 in Rain Rain
10:00 PM 46.9 °F - 44.1 °F 90% 29.82 in 6.0 mi South 11.5 mph - 0.02 in Rain Rain
10:07 PM 46.0 °F 41.0 °F 44.1 °F 93% 29.80 in 8.0 mi South 10.4 mph - 0.03 in Rain Light Rain
10:24 PM 46.0 °F 40.2 °F 44.1 °F 93% 29.80 in 10.0 mi South 12.7 mph - 0.03 in   Overcast
10:53 PM 46.0 °F 41.0 °F 43.0 °F 89% 29.75 in 10.0 mi South 10.4 mph - 0.03 in   Overcast
11:38 PM 46.0 °F 42.5 °F 44.1 °F 93% 29.80 in 10.0 mi SW 6.9 mph - N/A   Mostly Cloudy
11:53 PM 46.0 °F 41.9 °F 43.0 °F 89% 29.74 in 10.0 mi SW 8.1 mph - N/A   Mostly Cloudy